Torna al catalogo

HULIANWANG DIGUI-181

AttivoScienzaLEO
NORAD 100206·PAYLOAD·🇨🇳 China

Lanciato Aug 4, 2026 da Wenchang Space Launch Site

Loading…

Prossimi Passaggi (prossime 24 ore)

TLE

AggiornatoSource: Space-Track

Epoca: Sep 14, 2026, 12:43 UTC

1 A0206U 26176D   26257.53006074 -.00000091  00000-0  71920-4 0  9991
2 A0206  49.9910 245.4476 0000284   0.3568 359.7304 13.29328788  5502

Traccia HULIANWANG DIGUI-181 in tempo reale con AllMySat

Download on the App Store